This is the latest recevied weather packets stored in our database for station/object WZ8H. If no packets are shown the sender has not sent any weather packets the latest 10 day(s).
| Time | Temp. | Humidity | Pressure | Rain* | Wind** | Luminosity | Snow |
|---|---|---|---|---|---|---|---|
| 1778199721 | 12.22° C | 59% | 1011.2 hPa | 0 mm | - | 7 W/m² | - |
| 1778199417 | 12.22° C | 57% | 1011 hPa | 0 mm | - | 11 W/m² | - |
| 1778199116 | 12.22° C | 56% | 1011.1 hPa | 0 mm | - | 16 W/m² | - |
| 1778198811 | 12.78° C | 55% | 1011 hPa | 0 mm | - | 18 W/m² | - |
| 1778198505 | 12.78° C | 54% | 1011.1 hPa | 0 mm | - | 19 W/m² | - |
| 1778198199 | 12.78° C | 52% | 1011 hPa | 0 mm | - | 19 W/m² | - |
| 1778197899 | 13.33° C | 53% | 1011 hPa | 0 mm | - | 21 W/m² | - |
| 1778197575 | 13.33° C | 50% | 1011 hPa | 0 mm | - | 30 W/m² | - |
| 1778197244 | 13.33° C | 51% | 1011 hPa | 0 mm | - | 33 W/m² | - |
| 1778196917 | 13.33° C | 51% | 1011 hPa | 0 mm | - | 39 W/m² | - |
| 1778196614 | 13.33° C | 54% | 1011 hPa | 0 mm | - | 44 W/m² | - |
| 1778196313 | 13.33° C | 54% | 1011.1 hPa | 0 mm | - | 77 W/m² | - |
| 1778195981 | 13.89° C | 53% | 1011.1 hPa | 0 mm | - | 74 W/m² | - |
| 1778195676 | 13.89° C | 50% | 1011.1 hPa | 0 mm | - | 77 W/m² | - |
| 1778195377 | 13.89° C | 49% | 1011.2 hPa | 0 mm | - | 118 W/m² | - |
| 1778195048 | 13.89° C | 52% | 1011.1 hPa | 0 mm | - | 109 W/m² | - |
| 1778194745 | 13.89° C | 51% | 1011.2 hPa | 0 mm | - | 88 W/m² | - |
| 1778194423 | 13.89° C | 52% | 1011.2 hPa | 0 mm | - | 146 W/m² | - |
| 1778194121 | 13.89° C | 49% | 1011.3 hPa | 0 mm | - | 241 W/m² | - |
| 1778193794 | 13.89° C | 49% | 1011.3 hPa | 0 mm | - | 241 W/m² | - |
| 1778193494 | 14.44° C | 47% | 1011.3 hPa | 0 mm | - | 316 W/m² | - |
| 1778193174 | 14.44° C | 51% | 1011.4 hPa | 0 mm | - | 332 W/m² | - |
| 1778192872 | 14.44° C | 51% | 1011.4 hPa | 0 mm | - | 348 W/m² | - |
| 1778192571 | 14.44° C | 50% | 1011.3 hPa | 0 mm | - | 360 W/m² | - |
| 1778192274 | 14.44° C | 48% | 1011.5 hPa | 0 mm | - | 381 W/m² | - |
* Rain latest hour (hover to see other rain measurements)
** Current wind speed in m/s (hover to see current wind gust speed)